Location: Peterborough
(44.3091°N, 78.3197°W)
Time: 04:16:40
(UTC-04:00)

Tiros 1 despin weight - Pass Details

Date: 29 March 2023
Orbit: 586 x 632 km, 48.2° (Epoch: 08 June)

Event Time Altitude Azimuth Distance (km) Brightness Sun altitude
Rises 00:16:09 0° 286° (WNW) 2,817 - -40.4°
Reaches altitude 10° 00:18:27 10° 291° (WNW) 1,920 - -40.6°
Maximum altitude 00:22:47 56° 10° (N) 709 - -40.8°
Drops below altitude 10° 00:27:10 10° 90° (E) 1,943 - -41.1°
Sets 00:29:31 0° 94° (E) 2,854 - -41.2°
